| time (UTC) | temp F | wind direction | speed MPH | gust MPH | rain 1hr in | rain 24hr in | rain mn in | humidity % | barometer mb |
| 20260505003010 | 64 | 335 | 1.0 | 6.0 | 0.00 | 0.00 | 0.00 | 43 | 1008.9 |
| 20260505001510 | 64 | 233 | 2.0 | 7.0 | 0.00 | 0.00 | 0.00 | 39 | 1008.3 |
| 20260505000112 | 65 | 145 | 0.0 | 2.0 | 0.00 | 0.00 | 0.00 | 40 | 1008.1 |
| 20260504234511 | 66 | 48 | 1.0 | 4.0 | 0.00 | 0.00 | 0.00 | 37 | 1007.8 |
| 20260504233010 | 67 | 346 | 0.0 | 3.0 | 0.00 | 0.00 | 0.00 | 39 | 1007.6 |
| 20260504231509 | 68 | 343 | 0.0 | 5.0 | 0.00 | 0.00 | 0.00 | 35 | 1007.4 |
| 20260504224510 | 69 | 315 | 2.0 | 5.0 | 0.00 | 0.00 | 0.00 | 33 | 1007.0 |
| 20260504223007 | 70 | 299 | 1.0 | 3.0 | 0.00 | 0.00 | 0.00 | 32 | 1006.9 |
| 20260504221508 | 70 | 317 | 1.0 | 5.0 | 0.00 | 0.00 | 0.00 | 32 | 1006.8 |
| 20260504214508 | 70 | 321 | 2.0 | 7.0 | 0.00 | 0.00 | 0.00 | 30 | 1006.9 |
| 20260504213007 | 71 | 336 | 3.0 | 8.0 | 0.00 | 0.00 | 0.00 | 30 | 1006.9 |
| 20260504211507 | 71 | 313 | 3.0 | 6.0 | 0.00 | 0.00 | 0.00 | 30 | 1006.9 |
| 20260504204511 | 71 | 330 | 2.0 | 8.0 | 0.00 | 0.00 | 0.00 | 30 | 1007.0 |
| 20260504203003 | 71 | 360 | 2.0 | 11.0 | 0.00 | 0.00 | 0.00 | 29 | 1007.0 |
| 20260504201502 | 72 | 279 | 3.0 | 9.0 | 0.00 | 0.00 | 0.00 | 29 | 1006.9 |
| 20260504194559 | 71 | 321 | 3.0 | 7.0 | 0.00 | 0.00 | 0.00 | 29 | 1007.0 |
| 20260504193101 | 72 | 283 | 4.0 | 12.0 | 0.00 | 0.00 | 0.00 | 29 | 1007.1 |
| 20260504191557 | 72 | 219 | 4.0 | 9.0 | 0.00 | 0.00 | 0.00 | 29 | 1007.0 |
| 20260504190156 | 72 | 116 | 2.0 | 9.0 | 0.00 | 0.00 | 0.00 | 28 | 1007.3 |
| 20260504184600 | 72 | 317 | 3.0 | 15.0 | 0.00 | 0.00 | 0.00 | 27 | 1007.2 |
| 20260504183056 | 71 | 338 | 4.0 | 12.0 | 0.00 | 0.00 | 0.00 | 28 | 1007.5 |
| 20260504181554 | 71 | 323 | 2.0 | 9.0 | 0.00 | 0.00 | 0.00 | 30 | 1007.5 |
| 20260504180152 | 72 | 284 | 2.0 | 8.0 | 0.00 | 0.00 | 0.00 | 28 | 1007.5 |
| 20260504174549 | 70 | 292 | 4.0 | 12.0 | 0.00 | 0.00 | 0.00 | 30 | 1007.6 |
| 20260504173046 | 70 | 350 | 4.0 | 12.0 | 0.00 | 0.00 | 0.00 | 28 | 1007.8 |
| 20260504171546 | 70 | 310 | 4.0 | 10.0 | 0.00 | 0.00 | 0.00 | 28 | 1008.1 |
| 20260504160136 | 67 | 194 | 4.0 | 10.0 | 0.00 | 0.00 | 0.00 | 34 | 1008.6 |
| 20260504150125 | 65 | 329 | 2.0 | 9.0 | 0.00 | 0.00 | 0.00 | 37 | 1009.4 |
| 20260504140114 | 62 | 348 | 2.0 | 8.0 | 0.00 | 0.00 | 0.00 | 39 | 1010.1 |
| 20260504120147 | 50 | 305 | 2.0 | 7.0 | 0.00 | 0.01 | 0.00 | 58 | 1010.9 |
| 20260504081537 | 43 | 346 | 0.0 | 1.0 | 0.00 | 0.01 | 0.00 | 71 | 1011.1 |
| 20260504044558 | 34 | 332 | 0.0 | 1.0 | 0.00 | 0.01 | 0.01 | 79 | 1011.1 |
| 20260504043100 | 35 | 331 | 0.0 | 2.0 | 0.00 | 0.01 | 0.01 | 79 | 1011.1 |
| 20260504041555 | 35 | 331 | 0.0 | 0.0 | 0.00 | 0.01 | 0.01 | 78 | 1011.1 |
| 20260504040054 | 35 | 331 | 0.0 | 0.0 | 0.00 | 0.01 | 0.01 | 77 | 1011.0 |
| 20260504034554 | 35 | 332 | 0.0 | 1.0 | 0.00 | 0.01 | 0.01 | 77 | 1011.0 |
| 20260504033053 | 36 | 331 | 0.0 | 0.0 | 0.00 | 0.01 | 0.01 | 75 | 1010.8 |
| 20260504031552 | 36 | 331 | 0.0 | 1.0 | 0.00 | 0.01 | 0.01 | 73 | 1010.8 |
| 20260504030048 | 37 | 331 | 0.0 | 2.0 | 0.00 | 0.01 | 0.01 | 72 | 1010.9 |
| 20260504024549 | 37 | 331 | 0.0 | 0.0 | 0.00 | 0.01 | 0.01 | 71 | 1010.8 |
| 20260504023043 | 38 | 331 | 0.0 | 0.0 | 0.00 | 0.01 | 0.01 | 70 | 1010.8 |
| 20260504021540 | 39 | 331 | 0.0 | 0.0 | 0.00 | 0.01 | 0.01 | 68 | 1010.8 |
| 20260504020057 | 40 | 331 | 0.0 | 1.0 | 0.00 | 0.01 | 0.01 | 66 | 1010.5 |
| 20260504014553 | 40 | 332 | 0.0 | 1.0 | 0.00 | 0.01 | 0.01 | 65 | 1010.4 |
| 20260504013045 | 41 | 330 | 0.0 | 1.0 | 0.00 | 0.01 | 0.01 | 62 | 1010.4 |
| 20260504011537 | 43 | 330 | 0.0 | 0.0 | 0.00 | 0.01 | 0.01 | 60 | 1010.3 |
| 20260504010042 | 44 | 329 | 0.0 | 0.0 | 0.00 | 0.01 | 0.01 | 56 | 1010.1 |
| 20260504004546 | 45 | 329 | 0.0 | 0.0 | 0.00 | 0.01 | 0.01 | 53 | 1009.9 |